• In Italy
  • List of Countries
  • For 7 days
  • Water Temperature
  • Satellite Maps
  • Weather Map
  • Weather Widgets
  • user-avatar
    Login

    Hourly Weather Qala i Naw

    Today, 20 February, Tuesday

    Time Temperature Precipitation Wind Pressure Humidity
    00:00 +8°C° 0.1 mm 3 mps 677 mmHg 56%
    01:00 +8°C° 0.1 mm 3 mps 677 mmHg 56%
    02:00 +7°C° 0.1 mm 3 mps 677 mmHg 59%
    03:00 +7°C° 0.1 mm 3 mps 677 mmHg 61%
    04:00 +4°C° 0 mm 3 mps 677 mmHg 69%
    05:00 +3°C° 0.3 mm 3 mps 677 mmHg 72%
    06:00 +4°C° 0.3 mm 2 mps 677 mmHg 76%
    07:00 +4°C° 0.3 mm 2 mps 677 mmHg 79%
    08:00 +4°C° 0.2 mm 2 mps 678 mmHg 77%
    09:00 +5°C° 0.2 mm 2 mps 678 mmHg 74%
    10:00 +6°C° 0.2 mm 2 mps 678 mmHg 72%
    11:00 +7°C° 0.1 mm 3 mps 679 mmHg 69%
    12:00 +8°C° 0.1 mm 3 mps 679 mmHg 67%
    13:00 +9°C° 0.1 mm 3 mps 679 mmHg 65%
    14:00 +9°C° 0 mm 3 mps 680 mmHg 66%
    15:00 +9°C° 0 mm 3 mps 680 mmHg 67%
    16:00 +8°C° 0 mm 3 mps 680 mmHg 68%
    17:00 +8°C° 0 mm 2 mps 680 mmHg 71%
    18:00 +7°C° 0 mm 2 mps 680 mmHg 74%
    19:00 +7°C° 0 mm 2 mps 681 mmHg 77%
    20:00 +6°C° 0 mm 2 mps 681 mmHg 77%
    21:00 +7°C° 0 mm 1 mps 681 mmHg 78%
    22:00 +7°C° 0 mm 1 mps 681 mmHg 78%
    23:00 +7°C° 0 mm 1 mps 681 mmHg 78%

    Tomorrow, 21 February, Wednesday

    Time Temperature Precipitation Wind Pressure Humidity
    00:00 +7°C° 0 mm 1 mps 681 mmHg 77%
    01:00 +6°C° 0 mm 1 mps 681 mmHg 76%
    02:00 +6°C° 0 mm 1 mps 681 mmHg 75%
    03:00 +5°C° 0 mm 0 mps 681 mmHg 74%
    04:00 +5°C° 0 mm 0 mps 681 mmHg 72%
    05:00 +5°C° 0 mm 0 mps 681 mmHg 70%
    06:00 +5°C° 0 mm 0 mps 681 mmHg 69%
    07:00 +5°C° 0 mm 0 mps 681 mmHg 67%
    08:00 +8°C° 0 mm 1 mps 682 mmHg 59%
    09:00 +10°C° 0 mm 1 mps 682 mmHg 50%
    10:00 +12°C° 0 mm 1 mps 683 mmHg 42%
    11:00 +13°C° 0 mm 1 mps 682 mmHg 39%
    12:00 +14°C° 0 mm 2 mps 682 mmHg 35%
    13:00 +16°C° 0 mm 2 mps 682 mmHg 32%
    14:00 +16°C° 0 mm 2 mps 681 mmHg 33%
    15:00 +16°C° 0 mm 3 mps 681 mmHg 33%
    16:00 +16°C° 0 mm 3 mps 681 mmHg 34%
    17:00 +15°C° 0 mm 2 mps 681 mmHg 40%
    18:00 +13°C° 0 mm 2 mps 681 mmHg 46%
    19:00 +12°C° 0 mm 1 mps 680 mmHg 52%
    20:00 +12°C° 0 mm 1 mps 680 mmHg 52%
    21:00 +11°C° 0 mm 1 mps 680 mmHg 53%
    22:00 +10°C° 0 mm 0 mps 680 mmHg 54%
    23:00 +10°C° 0 mm 0 mps 680 mmHg 53%

    Day after tomorrow, 22 February, Thursday

    Time Temperature Precipitation Wind Pressure Humidity
    00:00 +10°C° 0 mm 0 mps 680 mmHg 52%
    01:00 +11°C° 0 mm 1 mps 680 mmHg 51%
    02:00 +10°C° 0 mm 1 mps 679 mmHg 52%
    03:00 +9°C° 0 mm 1 mps 679 mmHg 53%
    04:00 +9°C° 0 mm 1 mps 678 mmHg 54%
    05:00 +9°C° 0 mm 1 mps 679 mmHg 53%
    06:00 +9°C° 0 mm 1 mps 679 mmHg 52%
    07:00 +8°C° 0 mm 0 mps 679 mmHg 52%
    08:00 +11°C° 0 mm 1 mps 679 mmHg 44%
    09:00 +13°C° 0 mm 1 mps 680 mmHg 37%
    10:00 +16°C° 0 mm 1 mps 680 mmHg 30%
    11:00 +17°C° 0 mm 2 mps 680 mmHg 29%
    12:00 +18°C° 0 mm 2 mps 680 mmHg 28%
    13:00 +18°C° 0 mm 3 mps 680 mmHg 26%
    14:00 +18°C° 0 mm 3 mps 679 mmHg 28%
    15:00 +18°C° 0 mm 3 mps 679 mmHg 29%
    16:00 +18°C° 0 mm 3 mps 679 mmHg 30%
    17:00 +17°C° 0 mm 3 mps 679 mmHg 36%
    18:00 +15°C° 0 mm 2 mps 679 mmHg 41%
    19:00 +14°C° 0 mm 1 mps 679 mmHg 46%
    20:00 +13°C° 0 mm 1 mps 679 mmHg 48%
    21:00 +12°C° 0 mm 1 mps 679 mmHg 49%
    22:00 +12°C° 0 mm 1 mps 679 mmHg 50%
    23:00 +12°C° 0 mm 1 mps 678 mmHg 50%

    23 February, Friday

    Time Temperature Precipitation Wind Pressure Humidity
    00:00 +11°C° 0 mm 1 mps 678 mmHg 49%
    01:00 +11°C° 0 mm 1 mps 678 mmHg 49%
    02:00 +11°C° 0 mm 1 mps 678 mmHg 50%
    03:00 +10°C° 0 mm 1 mps 677 mmHg 51%
    04:00 +10°C° 0 mm 1 mps 677 mmHg 53%
    05:00 +10°C° 0 mm 1 mps 677 mmHg 52%
    06:00 +10°C° 0 mm 1 mps 677 mmHg 50%
    07:00 +10°C° 0 mm 1 mps 677 mmHg 49%
    08:00 +13°C° 0 mm 1 mps 678 mmHg 43%
    09:00 +15°C° 0 mm 2 mps 678 mmHg 37%
    10:00 +17°C° 0 mm 2 mps 678 mmHg 31%
    11:00 +18°C° 0 mm 2 mps 678 mmHg 30%
    12:00 +19°C° 0 mm 2 mps 677 mmHg 29%
    13:00 +20°C° 0 mm 2 mps 677 mmHg 27%
    14:00 +20°C° 0 mm 3 mps 677 mmHg 30%
    15:00 +19°C° 0 mm 3 mps 676 mmHg 32%
    16:00 +19°C° 0 mm 4 mps 676 mmHg 34%
    17:00 +18°C° 0.1 mm 3 mps 676 mmHg 40%
    18:00 +16°C° 0.1 mm 3 mps 676 mmHg 45%
    19:00 +15°C° 0.1 mm 2 mps 676 mmHg 51%
    20:00 +15°C° 0.1 mm 2 mps 676 mmHg 54%
    21:00 +14°C° 0.1 mm 2 mps 676 mmHg 58%
    22:00 +14°C° 0.1 mm 1 mps 676 mmHg 61%
    23:00 +13°C° 0.2 mm 2 mps 676 mmHg 64%

    24 February, Saturday

    Time Temperature Precipitation Wind Pressure Humidity
    00:00 +13°C° 0.2 mm 2 mps 676 mmHg 67%
    01:00 +12°C° 0.2 mm 2 mps 676 mmHg 70%
    02:00 +10°C° 0.4 mm 2 mps 676 mmHg 74%
    03:00 +10°C° 0.4 mm 2 mps 676 mmHg 78%
    04:00 +9°C° 0.4 mm 2 mps 675 mmHg 82%
    05:00 +9°C° 0.7 mm 2 mps 676 mmHg 84%
    06:00 +9°C° 0.7 mm 2 mps 676 mmHg 85%
    07:00 +9°C° 0.7 mm 1 mps 677 mmHg 87%
    08:00 +10°C° 0.1 mm 2 mps 677 mmHg 80%
    09:00 +12°C° 0.1 mm 2 mps 678 mmHg 74%
    10:00 +13°C° 0.1 mm 2 mps 678 mmHg 67%
    11:00 +14°C° 0.1 mm 2 mps 678 mmHg 62%
    12:00 +16°C° 0.1 mm 3 mps 678 mmHg 57%
    13:00 +17°C° 0.1 mm 3 mps 678 mmHg 52%
    14:00 +17°C° 0.3 mm 3 mps 678 mmHg 54%
    15:00 +16°C° 0.3 mm 3 mps 677 mmHg 56%
    16:00 +15°C° 0.3 mm 4 mps 677 mmHg 58%
    17:00 +14°C° 0.4 mm 3 mps 678 mmHg 63%
    18:00 +14°C° 0.4 mm 2 mps 678 mmHg 69%
    19:00 +13°C° 0.4 mm 2 mps 678 mmHg 74%
    20:00 +13°C° 0.8 mm 2 mps 679 mmHg 76%
    21:00 +13°C° 0.8 mm 2 mps 679 mmHg 77%
    22:00 +13°C° 0.8 mm 2 mps 679 mmHg 79%
    23:00 +12°C° 0.6 mm 2 mps 679 mmHg 79%

    25 February, Sunday

    Time Temperature Precipitation Wind Pressure Humidity
    00:00 +12°C° 0.6 mm 2 mps 679 mmHg 80%
    01:00 +12°C° 0.6 mm 1 mps 679 mmHg 81%
    02:00 +12°C° 0.4 mm 2 mps 679 mmHg 80%
    03:00 +12°C° 0.4 mm 2 mps 679 mmHg 78%
    04:00 +12°C° 0.4 mm 2 mps 679 mmHg 77%
    05:00 +12°C° 0.5 mm 2 mps 679 mmHg 78%
    06:00 +12°C° 0.5 mm 2 mps 680 mmHg 78%
    07:00 +12°C° 0.5 mm 2 mps 680 mmHg 79%
    08:00 +12°C° 0.2 mm 2 mps 680 mmHg 75%
    09:00 +13°C° 0.2 mm 2 mps 681 mmHg 70%
    10:00 +14°C° 0.2 mm 2 mps 681 mmHg 66%
    11:00 +16°C° 0 mm 3 mps 681 mmHg 61%
    12:00 +17°C° 0 mm 3 mps 680 mmHg 56%
    13:00 +18°C° 0 mm 3 mps 680 mmHg 52%
    14:00 +18°C° 0.3 mm 3 mps 680 mmHg 54%
    15:00 +17°C° 0.3 mm 3 mps 680 mmHg 56%
    16:00 +17°C° 0.3 mm 3 mps 679 mmHg 58%
    17:00 +16°C° 0.5 mm 2 mps 679 mmHg 63%
    18:00 +15°C° 0.5 mm 2 mps 679 mmHg 67%
    19:00 +15°C° 0.5 mm 2 mps 679 mmHg 72%
    20:00 +14°C° 0.5 mm 2 mps 679 mmHg 73%
    21:00 +14°C° 0.5 mm 2 mps 679 mmHg 74%
    22:00 +14°C° 0.5 mm 2 mps 679 mmHg 76%
    23:00 +14°C° 1 mm 1 mps 679 mmHg 77%
    Show more